Location: Podia
(1.5569°N, 32.3469°E)
Time: 12:56:24
(UTC+00:00)

Vanguard 1 Rocket - Visible Passes

Search period start: 26 September 2020 00:00
Search period end: 06 October 2020 00:00
Orbit: 655 x 4222 km, 34.3° (Epoch: 25 September)

Date Brightness Start Highest point End Pass type
(mag) Time Alt. Az. Time Alt. Az. Time Alt. Az.
26 Sep 9.7 01:27:13 50° W 01:31:09 57° SW 01:42:51 10° SE visible
26 Sep 11.1 16:15:12 10° NW 16:25:22 22° N 16:40:23 10° NE visible
26 Sep 11.3 18:48:16 10° NW 19:05:01 24° NNE 19:08:08 24° NNE visible
26 Sep 11.5 21:19:35 10° NW 22:03:06 11° E 22:03:27 10° E visible
27 Sep 9.8 00:20:25 73° SSE 00:20:25 73° SSE 00:32:09 10° SE visible
27 Sep 10.2 02:37:44 18° W 02:46:18 26° SW 02:55:02 10° S visible
27 Sep 11.3 17:34:15 10° NW 17:47:01 21° N 18:00:11 13° NE visible
27 Sep 11.3 20:05:30 10° NW 20:17:23 29° N 20:17:23 29° N visible
27 Sep 10.6 23:13:31 37° ESE 23:13:31 37° ESE 23:20:26 10° ESE visible
28 Sep 9.9 01:30:50 44° WSW 01:33:46 46° SW 01:45:35 10° SSE visible
28 Sep 11.2 16:20:22 10° NW 16:30:02 19° N 16:43:39 10° NE visible
28 Sep 11.2 18:51:54 10° NNW 19:09:30 27° NNE 19:09:30 27° NNE visible
28 Sep 11.4 21:22:06 10° NW 22:06:31 12° ESE 22:07:24 10° ESE visible
29 Sep 9.9 00:23:49 62° S 00:23:49 62° S 00:35:08 10° SE visible
29 Sep 10.4 02:41:08 14° WSW 02:49:18 20° SW 02:57:13 10° S visible
29 Sep 11.3 17:38:37 10° NNW 17:51:55 21° NNE 18:01:38 17° NE visible
29 Sep 11.2 20:08:16 10° NW 20:18:51 29° NNW 20:18:51 29° NNW visible
29 Sep 10.6 23:16:44 37° SE 23:16:44 37° SE 23:23:41 10° SE visible
30 Sep 10.2 01:34:01 36° WSW 01:36:28 37° SW 01:48:13 10° SSE visible
30 Sep 11.2 16:25:27 10° NNW 16:34:51 18° N 16:47:37 10° NE visible
30 Sep 11.1 18:55:07 10° NNW 19:11:02 30° NNE 19:11:02 30° NNE visible
30 Sep 11.4 21:24:36 10° NW 22:09:34 14° ESE 22:11:02 10° ESE visible
01 Oct 10.1 00:26:51 52° S 00:26:51 52° S 00:37:57 10° SE visible
01 Oct 10.7 02:44:08 10° WSW 02:52:36 15° SW 02:59:03 10° S visible
01 Oct 11.2 17:42:27 10° NNW 17:56:36 23° NNE 18:03:15 21° NE visible
01 Oct 11.2 20:10:54 10° NW 20:20:29 30° NNW 20:20:29 30° NNW visible
01 Oct 10.6 23:19:35 37° SE 23:19:35 37° SE 23:26:44 10° SE visible
02 Oct 10.4 01:36:52 29° SW 01:39:18 30° SW 01:50:41 10° SSE visible
02 Oct 11.2 16:30:05 10° NNW 16:39:40 17° NNE 16:52:27 10° NE visible
02 Oct 11.0 18:58:02 10° NNW 19:12:46 34° N 19:12:46 34° N visible
02 Oct 11.3 21:27:11 10° NW 22:12:15 16° ESE 22:14:23 10° ESE visible
03 Oct 10.3 00:29:31 44° SSW 00:29:31 44° SSW 00:40:39 10° SSE visible
03 Oct 10.8 02:51:57 10° SW 02:56:15 11° SW 02:59:58 10° SSW visible
03 Oct 11.1 17:45:49 10° NNW 18:00:58 26° NNE 18:05:06 25° NE visible
03 Oct 11.2 20:13:30 10° NW 20:22:20 31° NNW 20:22:20 31° NNW visible
03 Oct 10.6 23:22:07 37° SSE 23:22:07 37° SSE 23:29:36 10° SE visible
04 Oct 10.7 01:39:22 23° SW 01:42:26 24° SW 01:53:04 10° S visible
04 Oct 11.1 16:34:08 10° NNW 16:44:22 18° NNE 16:57:29 11° NE visible
04 Oct 10.9 19:00:47 10° NW 19:14:44 38° N 19:14:44 38° N visible
04 Oct 11.3 21:29:52 10° NW 22:14:38 19° SE 22:17:30 10° SE visible
05 Oct 10.5 00:31:53 37° SSW 00:31:53 37° SSW 00:43:14 10° SSE visible
05 Oct 10.9 17:48:51 10° NNW 18:04:57 30° NNE 18:07:11 30° NE visible
05 Oct 11.1 20:16:07 10° NW 21:07:05 - ESE 20:24:27 31° NW visible
05 Oct 10.7 23:24:19 36° SSE 23:24:19 36° SSE 23:32:20 10° SE visible
